VIR810P EGCC-EGPH

Flight info

Callsign VIR810P
Flight time 0h 41m
Altitude 20000
Route POL N601 INPIP
Aircraft A35K/H-BDE3GHIJ1J2J3J5LM1OP2RVWXYZ/LB2D1G1

Departure

Time 2026-05-06 11:25
Airport Manchester Airport (EGCC)

Arrival

Time 2026-05-06 12:07
Airport Edinburgh Airport (EGPH)
Time Latitude Longitude Altitude Speed Heading
2026-05-06 09:02 53.36755 -2.28754 262 ft 0 kts 315°
2026-05-06 09:02 53.36757 -2.28758 262 ft 0 kts 315°
2026-05-06 11:11 53.36756 -2.28756 261 ft 2 kts 315°
2026-05-06 11:11 53.36737 -2.28725 263 ft 4 kts 315°
2026-05-06 11:12 53.36722 -2.28700 263 ft 4 kts 312°
2026-05-06 11:12 53.36710 -2.28665 265 ft 4 kts 263°
2026-05-06 11:12 53.36717 -2.28638 264 ft 1 kts 224°
2026-05-06 11:12 53.36703 -2.28661 262 ft 4 kts 224°
2026-05-06 11:13 53.36684 -2.28693 262 ft 4 kts 224°
2026-05-06 11:13 53.36664 -2.28724 261 ft 4 kts 224°
2026-05-06 11:13 53.36658 -2.28735 261 ft 0 kts 224°
2026-05-06 11:16 53.36652 -2.28745 261 ft 2 kts 224°
2026-05-06 11:16 53.36638 -2.28767 261 ft 4 kts 224°
2026-05-06 11:16 53.36606 -2.28785 261 ft 6 kts 176°
2026-05-06 11:16 53.36567 -2.28736 261 ft 8 kts 135°
2026-05-06 11:17 53.36523 -2.28661 261 ft 10 kts 135°
2026-05-06 11:17 53.36474 -2.28578 261 ft 10 kts 135°
2026-05-06 11:17 53.36429 -2.28507 261 ft 8 kts 141°
2026-05-06 11:17 53.36376 -2.28475 261 ft 9 kts 171°
2026-05-06 11:18 53.36317 -2.28425 261 ft 10 kts 135°
2026-05-06 11:18 53.36261 -2.28329 261 ft 13 kts 135°
2026-05-06 11:18 53.36189 -2.28209 261 ft 16 kts 134°
2026-05-06 11:18 53.36136 -2.28116 261 ft 18 kts 135°
2026-05-06 11:19 53.36030 -2.27958 261 ft 12 kts 139°
2026-05-06 11:19 53.35960 -2.27865 261 ft 13 kts 156°
2026-05-06 11:19 53.35861 -2.27853 259 ft 15 kts 186°
2026-05-06 11:19 53.35759 -2.27870 254 ft 17 kts 182°
2026-05-06 11:20 53.35657 -2.27889 248 ft 6 kts 187°
2026-05-06 11:20 53.35628 -2.27905 246 ft 8 kts 208°
2026-05-06 11:20 53.35593 -2.27967 244 ft 8 kts 233°
2026-05-06 11:20 53.35541 -2.28063 241 ft 14 kts 221°
2026-05-06 11:21 53.35444 -2.28147 241 ft 16 kts 194°
2026-05-06 11:21 53.35327 -2.28193 239 ft 20 kts 200°
2026-05-06 11:21 53.35209 -2.28344 237 ft 23 kts 231°
2026-05-06 11:21 53.35098 -2.28575 239 ft 26 kts 231°
2026-05-06 11:22 53.34972 -2.28814 235 ft 29 kts 227°
2026-05-06 11:22 53.34863 -2.29006 226 ft 18 kts 228°
2026-05-06 11:22 53.34811 -2.29103 226 ft 10 kts 229°
2026-05-06 11:22 53.34759 -2.29210 226 ft 14 kts 231°
2026-05-06 11:23 53.34714 -2.29290 226 ft 6 kts 219°
2026-05-06 11:23 53.34664 -2.29330 223 ft 9 kts 198°
2026-05-06 11:23 53.34618 -2.29338 225 ft 0 kts 177°
2026-05-06 11:23 53.34609 -2.29335 225 ft 2 kts 170°
2026-05-06 11:24 53.34582 -2.29320 223 ft 7 kts 158°
2026-05-06 11:24 53.34536 -2.29245 219 ft 11 kts 97°
2026-05-06 11:24 53.34595 -2.29109 229 ft 24 kts 50°
2026-05-06 11:24 53.34847 -2.28583 239 ft 92 kts 51°
2026-05-06 11:25 53.35389 -2.27464 253 ft 152 kts 51°
2026-05-06 11:25 53.36055 -2.26061 893 ft 154 kts 53°
2026-05-06 11:25 53.36690 -2.24608 1572 ft 164 kts 55°
2026-05-06 11:25 53.37376 -2.22936 1962 ft 184 kts 54°
2026-05-06 11:26 53.38201 -2.21088 2322 ft 209 kts 53°
2026-05-06 11:26 53.39135 -2.19077 2779 ft 229 kts 51°
2026-05-06 11:26 53.40177 -2.16934 3306 ft 244 kts 51°
2026-05-06 11:26 53.41262 -2.14706 3697 ft 248 kts 51°
2026-05-06 11:27 53.42413 -2.12574 4369 ft 250 kts 41°
2026-05-06 11:27 53.43924 -2.11125 5224 ft 252 kts 16°
2026-05-06 11:27 53.45653 -2.10677 6141 ft 251 kts
2026-05-06 11:27 53.47379 -2.10375 6936 ft 254 kts 10°
2026-05-06 11:28 53.49121 -2.09662 7648 ft 259 kts 14°
2026-05-06 11:28 53.50883 -2.08816 8356 ft 264 kts 15°
2026-05-06 11:28 53.52656 -2.07940 9000 ft 269 kts 15°
2026-05-06 11:28 53.54447 -2.07047 9500 ft 273 kts 15°
2026-05-06 11:29 53.56291 -2.06125 10035 ft 277 kts 15°
2026-05-06 11:29 53.58178 -2.05176 10475 ft 290 kts 14°
2026-05-06 11:29 53.60208 -2.04621 10743 ft 306 kts
2026-05-06 11:29 53.62411 -2.04463 11062 ft 322 kts
2026-05-06 11:30 53.64658 -2.04340 11543 ft 331 kts 360°
2026-05-06 11:30 53.66995 -2.04398 12052 ft 337 kts 350°
2026-05-06 11:30 53.69266 -2.05450 12662 ft 339 kts 337°
2026-05-06 11:30 53.71392 -2.07130 13296 ft 342 kts 329°
2026-05-06 11:31 53.73418 -2.09276 13660 ft 345 kts 326°
2026-05-06 11:31 53.75542 -2.11251 13933 ft 349 kts 333°
2026-05-06 11:31 53.77747 -2.12915 14169 ft 352 kts 336°
2026-05-06 11:31 53.80044 -2.14459 14622 ft 356 kts 337°
2026-05-06 11:32 53.82068 -2.15763 15165 ft 358 kts 338°
2026-05-06 11:32 53.84410 -2.17271 15750 ft 360 kts 337°
2026-05-06 11:32 53.86742 -2.18796 16300 ft 364 kts 337°
2026-05-06 11:32 53.89114 -2.20371 16844 ft 367 kts 336°
2026-05-06 11:33 53.91494 -2.21983 17400 ft 365 kts 336°
2026-05-06 11:33 53.93788 -2.23550 17773 ft 353 kts 336°
2026-05-06 11:33 53.96065 -2.25116 18176 ft 351 kts 335°
2026-05-06 11:33 53.98335 -2.26684 18704 ft 349 kts 335°
2026-05-06 11:34 54.00541 -2.28205 19433 ft 336 kts 335°
2026-05-06 11:34 54.02681 -2.29676 19972 ft 326 kts 335°
2026-05-06 11:34 54.04754 -2.31103 20553 ft 326 kts 335°
2026-05-06 11:34 54.06869 -2.32571 21076 ft 329 kts 335°
2026-05-06 11:35 54.09006 -2.34061 21615 ft 332 kts 335°
2026-05-06 11:35 54.11148 -2.35554 21982 ft 333 kts 335°
2026-05-06 11:35 54.13302 -2.37053 22053 ft 334 kts 335°
2026-05-06 11:35 54.15444 -2.38545 22005 ft 335 kts 335°
2026-05-06 11:36 54.17608 -2.40045 21851 ft 335 kts 335°
2026-05-06 11:36 54.19782 -2.41554 21684 ft 335 kts 335°
2026-05-06 11:36 54.21920 -2.43039 21430 ft 334 kts 335°
2026-05-06 11:36 54.24074 -2.44538 21177 ft 333 kts 335°
2026-05-06 11:37 54.26213 -2.46030 21055 ft 332 kts 335°
2026-05-06 11:37 54.28358 -2.47527 21031 ft 331 kts 335°
2026-05-06 11:37 54.30468 -2.49001 21047 ft 331 kts 335°
2026-05-06 11:37 54.32607 -2.50496 21046 ft 331 kts 335°
2026-05-06 11:38 54.34740 -2.51990 21045 ft 331 kts 335°
2026-05-06 11:38 54.36883 -2.53492 21045 ft 331 kts 335°
2026-05-06 11:38 54.38999 -2.54977 21045 ft 331 kts 335°
2026-05-06 11:38 54.41143 -2.56482 21049 ft 331 kts 335°
2026-05-06 11:39 54.43255 -2.57966 21046 ft 331 kts 335°
2026-05-06 11:39 54.45391 -2.59470 21028 ft 331 kts 335°
2026-05-06 11:39 54.47509 -2.60963 21058 ft 331 kts 334°
2026-05-06 11:39 54.49644 -2.62470 21046 ft 330 kts 334°
2026-05-06 11:40 54.51749 -2.63951 21034 ft 330 kts 335°
2026-05-06 11:40 54.53878 -2.65456 21034 ft 330 kts 334°
2026-05-06 11:40 54.56012 -2.66970 21052 ft 330 kts 334°
2026-05-06 11:40 54.58147 -2.68489 21041 ft 330 kts 334°
2026-05-06 11:41 54.60250 -2.69985 21034 ft 330 kts 334°
2026-05-06 11:41 54.62389 -2.71509 21035 ft 330 kts 334°
2026-05-06 11:41 54.64499 -2.73011 21038 ft 330 kts 334°
2026-05-06 11:41 54.66626 -2.74526 21052 ft 330 kts 334°
2026-05-06 11:42 54.68729 -2.76027 21033 ft 330 kts 334°
2026-05-06 11:42 54.70868 -2.77554 21034 ft 330 kts 334°
2026-05-06 11:42 54.72967 -2.79050 21040 ft 330 kts 334°
2026-05-06 11:42 54.75085 -2.80567 21035 ft 329 kts 334°
2026-05-06 11:43 54.77210 -2.82092 21040 ft 329 kts 334°
2026-05-06 11:43 54.79333 -2.83618 21041 ft 329 kts 334°
2026-05-06 11:43 54.81430 -2.85124 21038 ft 329 kts 334°
2026-05-06 11:44 54.85645 -2.88158 21041 ft 329 kts 334°
2026-05-06 11:44 54.87773 -2.89692 21038 ft 329 kts 334°
2026-05-06 11:44 54.89875 -2.91205 21041 ft 329 kts 334°
2026-05-06 11:44 54.91993 -2.92736 21041 ft 329 kts 334°
2026-05-06 11:45 54.94114 -2.94272 20820 ft 329 kts 334°
2026-05-06 11:45 54.96227 -2.95802 20391 ft 327 kts 334°
2026-05-06 11:45 54.98291 -2.97298 19973 ft 324 kts 334°
2026-05-06 11:45 55.00383 -2.98817 19539 ft 323 kts 334°
2026-05-06 11:46 55.02461 -3.00327 19133 ft 321 kts 334°
2026-05-06 11:46 55.04494 -3.01807 18707 ft 319 kts 334°
2026-05-06 11:46 55.06541 -3.03297 18412 ft 317 kts 334°
2026-05-06 11:46 55.08587 -3.04789 18099 ft 317 kts 334°
2026-05-06 11:47 55.10597 -3.06256 17818 ft 315 kts 334°
2026-05-06 11:47 55.12624 -3.07736 17620 ft 311 kts 334°
2026-05-06 11:47 55.14594 -3.09174 17422 ft 301 kts 334°
2026-05-06 11:47 55.16497 -3.10558 17232 ft 291 kts 334°
2026-05-06 11:48 55.18313 -3.11886 17058 ft 281 kts 334°
2026-05-06 11:48 55.20107 -3.13205 16684 ft 279 kts 334°
2026-05-06 11:48 55.21909 -3.14536 16167 ft 281 kts 334°
2026-05-06 11:48 55.23702 -3.15859 15761 ft 280 kts 334°
2026-05-06 11:49 55.25497 -3.17181 15372 ft 279 kts 334°
2026-05-06 11:49 55.27282 -3.18496 15002 ft 277 kts 334°
2026-05-06 11:49 55.29050 -3.19721 14608 ft 276 kts 340°
2026-05-06 11:49 55.30957 -3.20215 14312 ft 274 kts 358°
2026-05-06 11:50 55.32854 -3.20022 14080 ft 269 kts
2026-05-06 11:50 55.34678 -3.19725 13544 ft 264 kts
2026-05-06 11:50 55.36512 -3.19424 12904 ft 265 kts
2026-05-06 11:50 55.38335 -3.19129 12497 ft 263 kts
2026-05-06 11:51 55.40160 -3.18837 12152 ft 261 kts
2026-05-06 11:51 55.41970 -3.18549 12053 ft 266 kts
2026-05-06 11:51 55.43833 -3.18256 12042 ft 270 kts
2026-05-06 11:51 55.45710 -3.17960 12044 ft 270 kts
2026-05-06 11:52 55.47596 -3.17663 11882 ft 273 kts
2026-05-06 11:52 55.49506 -3.17366 11475 ft 274 kts
2026-05-06 11:52 55.51375 -3.17073 11171 ft 269 kts
2026-05-06 11:52 55.53234 -3.16778 11056 ft 267 kts
2026-05-06 11:53 55.55091 -3.16485 10984 ft 268 kts
2026-05-06 11:53 55.56945 -3.16194 10595 ft 270 kts
2026-05-06 11:53 55.58802 -3.15903 10273 ft 265 kts
2026-05-06 11:53 55.60619 -3.15616 9967 ft 262 kts
2026-05-06 11:54 55.62433 -3.15332 9574 ft 261 kts
2026-05-06 11:54 55.64248 -3.15044 9185 ft 259 kts
2026-05-06 11:54 55.66012 -3.14764 9061 ft 258 kts
2026-05-06 11:54 55.67808 -3.14479 9043 ft 257 kts
2026-05-06 11:55 55.69600 -3.14355 8812 ft 256 kts 353°
2026-05-06 11:55 55.71237 -3.15395 8561 ft 252 kts 325°
2026-05-06 11:55 55.72386 -3.17703 8308 ft 251 kts 296°
2026-05-06 11:55 55.72794 -3.20669 8087 ft 251 kts 274°
2026-05-06 11:56 55.72812 -3.23787 8021 ft 252 kts 270°
2026-05-06 11:56 55.72763 -3.26906 7818 ft 253 kts 269°
2026-05-06 11:56 55.72709 -3.30025 7495 ft 252 kts 269°
2026-05-06 11:56 55.72659 -3.33133 7152 ft 250 kts 269°
2026-05-06 11:57 55.72622 -3.36180 6813 ft 247 kts 272°
2026-05-06 11:57 55.72781 -3.39202 6547 ft 244 kts 278°
2026-05-06 11:57 55.73044 -3.42182 6373 ft 240 kts 279°
2026-05-06 11:57 55.73310 -3.45045 6136 ft 236 kts 279°
2026-05-06 11:58 55.73583 -3.47900 5853 ft 231 kts 279°
2026-05-06 11:58 55.73867 -3.50654 5698 ft 220 kts 279°
2026-05-06 11:58 55.74146 -3.53246 5593 ft 206 kts 279°
2026-05-06 11:58 55.74417 -3.55685 5464 ft 200 kts 279°
2026-05-06 11:59 55.74690 -3.58087 5334 ft 200 kts 279°
2026-05-06 11:59 55.74968 -3.60506 5200 ft 200 kts 279°
2026-05-06 11:59 55.75239 -3.62932 5070 ft 200 kts 279°
2026-05-06 11:59 55.75648 -3.65269 4922 ft 204 kts 299°
2026-05-06 12:00 55.76616 -3.67111 4804 ft 204 kts 316°
2026-05-06 12:00 55.77691 -3.68790 4696 ft 204 kts 318°
2026-05-06 12:00 55.78795 -3.70397 4600 ft 205 kts 319°
2026-05-06 12:00 55.79886 -3.71988 4520 ft 205 kts 319°
2026-05-06 12:01 55.81115 -3.73288 4431 ft 207 kts 345°
2026-05-06 12:01 55.82462 -3.72994 4376 ft 197 kts 31°
2026-05-06 12:01 55.83415 -3.71324 4332 ft 192 kts 58°
2026-05-06 12:01 55.84103 -3.69276 4242 ft 192 kts 62°
2026-05-06 12:02 55.84779 -3.67269 3993 ft 190 kts 60°
2026-05-06 12:02 55.85470 -3.65272 3706 ft 188 kts 60°
2026-05-06 12:02 55.86151 -3.63281 3421 ft 187 kts 61°
2026-05-06 12:02 55.86824 -3.61302 3150 ft 185 kts 61°
2026-05-06 12:03 55.87479 -3.59375 2892 ft 184 kts 60°
2026-05-06 12:03 55.88139 -3.57437 2624 ft 180 kts 60°
2026-05-06 12:03 55.88792 -3.55522 2405 ft 180 kts 61°
2026-05-06 12:03 55.89443 -3.53604 2138 ft 178 kts 61°
2026-05-06 12:04 55.90056 -3.51803 1879 ft 166 kts 60°
2026-05-06 12:04 55.90641 -3.50081 1663 ft 158 kts 60°
2026-05-06 12:04 55.91189 -3.48470 1439 ft 149 kts 62°
2026-05-06 12:04 55.91713 -3.46927 1242 ft 140 kts 61°
2026-05-06 12:05 55.92221 -3.45425 1051 ft 142 kts 60°
2026-05-06 12:05 55.92733 -3.43919 839 ft 140 kts 59°
2026-05-06 12:05 55.93229 -3.42456 666 ft 139 kts 59°
2026-05-06 12:05 55.93728 -3.40987 465 ft 137 kts 59°
2026-05-06 12:06 55.94217 -3.39544 287 ft 137 kts 60°
2026-05-06 12:06 55.94703 -3.38093 118 ft 135 kts 60°
2026-05-06 12:06 55.95129 -3.36862 115 ft 96 kts 59°
2026-05-06 12:06 55.95399 -3.36074 113 ft 55 kts 58°
2026-05-06 12:07 55.95521 -3.35714 115 ft 12 kts 59°
2026-05-06 12:07 55.95537 -3.35666 115 ft 6 kts 59°
2026-05-06 12:07 55.95564 -3.35578 116 ft 8 kts 73°
2026-05-06 12:07 55.95540 -3.35492 116 ft 8 kts 140°
2026-05-06 12:08 55.95491 -3.35433 117 ft 9 kts 147°
2026-05-06 12:08 55.95431 -3.35425 120 ft 9 kts 214°
2026-05-06 12:08 55.95386 -3.35536 118 ft 13 kts 238°
2026-05-06 12:08 55.95352 -3.35635 118 ft 15 kts 238°
2026-05-06 12:09 55.95291 -3.35814 118 ft 18 kts 239°
2026-05-06 12:09 55.95240 -3.35966 117 ft 8 kts 239°
2026-05-06 12:09 55.95219 -3.36026 117 ft 8 kts 239°
2026-05-06 12:09 55.95192 -3.36109 117 ft 8 kts 239°
2026-05-06 12:10 55.95166 -3.36163 118 ft 6 kts 211°
2026-05-06 12:10 55.95129 -3.36148 121 ft 6 kts 137°
2026-05-06 12:10 55.95106 -3.36066 118 ft 9 kts 109°
2026-05-06 12:10 55.95100 -3.36037 118 ft 1 kts 108°
2026-05-06 12:11 55.95095 -3.36008 118 ft 2 kts 108°
2026-05-06 12:11 55.95085 -3.35964 119 ft 4 kts 118°
2026-05-06 12:11 55.95062 -3.35944 119 ft 4 kts 169°
2026-05-06 12:11 55.95050 -3.35960 118 ft 3 kts 222°
2026-05-06 12:12 55.95036 -3.36001 118 ft 1 kts 245°
2026-05-06 12:12 55.95032 -3.36018 118 ft 2 kts 247°
2026-05-06 12:12 55.95028 -3.36035 118 ft 2 kts 247°
2026-05-06 12:12 55.95026 -3.36044 117 ft 0 kts 248°